Voltar ao catálogo

FENGYUN 1C DEB

LostPO
NORAD 31911·DEBRIS·🇨🇳 China

Lançado May 10, 1999 de Taiyuan Satellite Launch Center

Loading…

Próximas Passagens (próximas 24 horas)

TLE

ObsoletoSource: Space-Track

Época: Oct 2, 2022, 10:17 UTC

1 31911U 99025CLN 22275.42902484  .00001092  00000-0  12100-2 0  9999
2 31911  98.7290 129.0954 0540136 148.3093 215.1774 13.23731655739786

Acompanhe FENGYUN 1C DEB em tempo real com AllMySat

Download on the App Store